TimePDT,TemperatureF,Dew PointF,Humidity,Sea Level PressureIn,VisibilityMPH,Wind Direction,Wind SpeedMPH,Gust SpeedMPH,PrecipitationIn,Events,Conditions,WindDirDegrees,DateUTC
12:53 AM,82.9,55.0,38,29.58,10.0,West,4.6,-,N/A,,Clear,260,2013-09-15 07:53:00
1:53 AM,81.0,54.0,39,29.58,10.0,WSW,5.8,-,N/A,,Clear,250,2013-09-15 08:53:00
2:53 AM,81.0,53.1,38,29.58,10.0,West,5.8,-,N/A,,Clear,270,2013-09-15 09:53:00
3:53 AM,80.1,51.1,36,29.59,10.0,West,5.8,-,N/A,,Clear,280,2013-09-15 10:53:00
4:53 AM,78.1,53.1,42,29.59,10.0,WNW,3.5,-,N/A,,Clear,300,2013-09-15 11:53:00
5:53 AM,78.1,53.1,42,29.61,10.0,Calm,Calm,-,N/A,,Clear,0,2013-09-15 12:53:00
6:53 AM,77.0,53.1,43,29.62,10.0,Calm,Calm,-,N/A,,Clear,0,2013-09-15 13:53:00
7:53 AM,84.0,52.0,33,29.65,10.0,Calm,Calm,-,N/A,,Clear,0,2013-09-15 14:53:00
8:53 AM,88.0,57.9,36,29.66,10.0,WNW,3.5,-,N/A,,Clear,300,2013-09-15 15:53:00
9:53 AM,93.0,55.9,29,29.67,10.0,WNW,5.8,-,N/A,,Clear,300,2013-09-15 16:53:00
10:53 AM,99.0,57.0,25,29.67,10.0,North,4.6,-,N/A,,Clear,350,2013-09-15 17:53:00
11:53 AM,100.9,51.1,19,29.66,10.0,Calm,Calm,-,N/A,,Clear,0,2013-09-15 18:53:00
12:53 PM,106.0,48.9,15,29.65,10.0,Calm,Calm,-,N/A,,Clear,0,2013-09-15 19:53:00
1:53 PM,107.1,48.0,14,29.63,10.0,NNE,4.6,-,N/A,,Clear,20,2013-09-15 20:53:00
2:53 PM,108.0,46.0,13,29.61,10.0,ENE,6.9,-,N/A,,Clear,70,2013-09-15 21:53:00
3:53 PM,108.0,42.1,11,29.59,10.0,SE,8.1,-,N/A,,Clear,130,2013-09-15 22:53:00
4:53 PM,109.0,37.9,9,29.58,10.0,East,9.2,-,N/A,,Clear,100,2013-09-15 23:53:00
5:53 PM,108.0,37.0,9,29.58,10.0,SE,6.9,-,N/A,,Clear,140,2013-09-16 00:53:00
6:53 PM,105.1,42.1,12,29.59,10.0,ESE,4.6,-,N/A,,Clear,120,2013-09-16 01:53:00
7:53 PM,98.1,43.0,15,29.60,10.0,South,4.6,-,N/A,,Clear,170,2013-09-16 02:53:00
8:53 PM,95.0,41.0,15,29.61,10.0,South,3.5,-,N/A,,Clear,180,2013-09-16 03:53:00
9:53 PM,93.0,46.9,20,29.63,10.0,SW,9.2,-,N/A,,Clear,230,2013-09-16 04:53:00
10:53 PM,88.0,51.1,28,29.64,10.0,NW,3.5,-,N/A,,Clear,310,2013-09-16 05:53:00
11:53 PM,82.9,50.0,32,29.65,10.0,West,4.6,-,N/A,,Clear,280,2013-09-16 06:53:00